| time (UTC) | temp F | wind direction | speed MPH | gust MPH | rain 1hr in | rain 24hr in | rain mn in | humidity % | barometer mb |
| 20260506004020 | 71 | 249 | 0.0 | 0.0 | 0.00 | 0.02 | 0.02 | 33 | 1016.4 |
| 20260506003516 | 71 | 268 | 1.0 | 2.0 | 0.00 | 0.02 | 0.02 | 39 | 1016.5 |
| 20260506003012 | 70 | 255 | 0.0 | 0.0 | 0.00 | 0.02 | 0.02 | 37 | 1016.4 |
| 20260506002508 | 71 | 234 | 0.0 | 1.0 | 0.00 | 0.02 | 0.02 | 36 | 1016.3 |
| 20260506002004 | 70 | 196 | 1.0 | 2.0 | 0.00 | 0.02 | 0.02 | 38 | 1016.5 |
| 20260506001500 | 71 | 193 | 3.0 | 6.0 | 0.00 | 0.02 | 0.02 | 37 | 1016.4 |
| 20260506000958 | 71 | 241 | 1.0 | 1.0 | 0.00 | 0.02 | 0.02 | 37 | 1016.4 |
| 20260506000455 | 71 | 257 | 0.0 | 0.0 | 0.00 | 0.02 | 0.02 | 38 | 1016.4 |
| 20260505235952 | 72 | 214 | 2.0 | 3.0 | 0.00 | 0.02 | 0.02 | 37 | 1016.3 |
| 20260505235451 | 73 | 168 | 2.0 | 3.0 | 0.00 | 0.02 | 0.02 | 36 | 1016.3 |
| 20260505234947 | 73 | 260 | 1.0 | 3.0 | 0.00 | 0.02 | 0.02 | 40 | 1016.5 |
| 20260505234444 | 71 | 262 | 0.0 | 0.0 | 0.00 | 0.02 | 0.02 | 38 | 1016.3 |
| 20260505233941 | 72 | 230 | 1.0 | 2.0 | 0.00 | 0.02 | 0.02 | 36 | 1016.4 |
| 20260505233439 | 71 | 267 | 1.0 | 1.0 | 0.00 | 0.02 | 0.02 | 39 | 1016.7 |
| 20260505232936 | 71 | 272 | 0.0 | 1.0 | 0.00 | 0.02 | 0.02 | 37 | 1016.4 |
| 20260505232434 | 72 | 231 | 2.0 | 3.0 | 0.00 | 0.02 | 0.02 | 37 | 1016.9 |
| 20260505231931 | 72 | 247 | 1.0 | 2.0 | 0.00 | 0.02 | 0.02 | 37 | 1016.7 |
| 20260505231428 | 69 | 272 | 0.0 | 1.0 | 0.00 | 0.02 | 0.02 | 39 | 1016.8 |
| 20260505230926 | 70 | 238 | 1.0 | 1.0 | 0.00 | 0.02 | 0.02 | 37 | 1017.1 |
| 20260505230423 | 69 | 187 | 3.0 | 5.0 | 0.00 | 0.02 | 0.02 | 39 | 1016.8 |
| 20260505225919 | 69 | 240 | 1.0 | 1.0 | 0.00 | 0.02 | 0.02 | 40 | 1017.0 |
| 20260505225417 | 69 | 285 | 2.0 | 2.0 | 0.00 | 0.02 | 0.02 | 39 | 1016.9 |
| 20260505224912 | 74 | 163 | 2.0 | 3.0 | 0.00 | 0.02 | 0.02 | 37 | 1016.8 |
| 20260505224410 | 75 | 270 | 1.0 | 1.0 | 0.00 | 0.02 | 0.02 | 39 | 1017.0 |
| 20260505223906 | 73 | 268 | 1.0 | 1.0 | 0.00 | 0.02 | 0.02 | 43 | 1017.1 |
| 20260505223403 | 72 | 258 | 1.0 | 2.0 | 0.00 | 0.02 | 0.02 | 39 | 1017.2 |
| 20260505222859 | 73 | 260 | 3.0 | 5.0 | 0.00 | 0.02 | 0.02 | 39 | 1017.1 |
| 20260505222356 | 71 | 273 | 2.0 | 3.0 | 0.00 | 0.02 | 0.02 | 42 | 1017.3 |
| 20260505221852 | 68 | 221 | 0.0 | 1.0 | 0.00 | 0.02 | 0.02 | 44 | 1017.2 |
| 20260505221349 | 72 | 191 | 1.0 | 1.0 | 0.00 | 0.02 | 0.02 | 38 | 1017.8 |
| 20260505220846 | 71 | 264 | 1.0 | 1.0 | 0.00 | 0.02 | 0.02 | 45 | 1017.8 |
| 20260505220343 | 71 | 266 | 2.0 | 3.0 | 0.00 | 0.02 | 0.02 | 41 | 1017.5 |
| 20260505215841 | 69 | 271 | 1.0 | 1.0 | 0.00 | 0.02 | 0.02 | 41 | 1017.9 |
| 20260505215339 | 72 | 257 | 2.0 | 2.0 | 0.00 | 0.02 | 0.02 | 42 | 1017.8 |
| 20260505214837 | 70 | 267 | 7.0 | 9.0 | 0.00 | 0.02 | 0.02 | 45 | 1017.9 |
| 20260505214334 | 69 | 258 | 2.0 | 2.0 | 0.00 | 0.02 | 0.02 | 42 | 1017.8 |
| 20260505213831 | 67 | 243 | 0.0 | 1.0 | 0.00 | 0.02 | 0.02 | 45 | 1017.9 |
| 20260505213329 | 67 | 87 | 3.0 | 5.0 | 0.00 | 0.02 | 0.02 | 46 | 1017.9 |
| 20260505212825 | 68 | 262 | 0.0 | 0.0 | 0.00 | 0.02 | 0.02 | 46 | 1017.9 |
| 20260505212322 | 68 | 264 | 1.0 | 1.0 | 0.00 | 0.02 | 0.02 | 46 | 1018.3 |
| 20260505211818 | 64 | 248 | 0.0 | 0.0 | 0.00 | 0.02 | 0.02 | 52 | 1018.3 |
| 20260505211316 | 68 | 260 | 0.0 | 1.0 | 0.00 | 0.02 | 0.02 | 46 | 1018.3 |
| 20260505210812 | 69 | 308 | 2.0 | 2.0 | 0.00 | 0.02 | 0.02 | 46 | 1018.5 |
| 20260505210309 | 67 | 270 | 3.0 | 3.0 | 0.00 | 0.02 | 0.02 | 49 | 1018.4 |
| 20260505205806 | 69 | 209 | 1.0 | 1.0 | 0.00 | 0.02 | 0.02 | 45 | 1018.5 |
| 20260505205305 | 71 | 266 | 2.0 | 2.0 | 0.00 | 0.02 | 0.02 | 43 | 1018.6 |
| 20260505204801 | 70 | 228 | 1.0 | 2.0 | 0.00 | 0.02 | 0.02 | 49 | 1018.5 |
| 20260505204259 | 68 | 242 | 1.0 | 2.0 | 0.00 | 0.02 | 0.02 | 52 | 1018.6 |
| 20260505203755 | 67 | 268 | 0.0 | 1.0 | 0.00 | 0.02 | 0.02 | 50 | 1018.7 |
| 20260505203253 | 65 | 267 | 0.0 | 1.0 | 0.00 | 0.02 | 0.02 | 54 | 1018.8 |
| 20260505202749 | 65 | 234 | 1.0 | 1.0 | 0.00 | 0.02 | 0.02 | 52 | 1018.5 |
| 20260505202244 | 64 | 250 | 1.0 | 1.0 | 0.00 | 0.02 | 0.02 | 51 | 1018.6 |
| 20260505201741 | 69 | 253 | 0.0 | 0.0 | 0.00 | 0.02 | 0.02 | 51 | 1018.6 |
| 20260505201239 | 67 | 269 | 1.0 | 2.0 | 0.00 | 0.02 | 0.02 | 54 | 1018.6 |
| 20260505200737 | 66 | 262 | 0.0 | 0.0 | 0.00 | 0.02 | 0.02 | 53 | 1018.7 |
| 20260505200235 | 67 | 253 | 0.0 | 0.0 | 0.00 | 0.02 | 0.02 | 53 | 1018.8 |
| 20260505195729 | 65 | 245 | 2.0 | 2.0 | 0.00 | 0.02 | 0.02 | 57 | 1018.8 |
| 20260505195227 | 66 | 257 | 0.0 | 1.0 | 0.00 | 0.02 | 0.02 | 53 | 1019.1 |
| 20260505194724 | 65 | 252 | 0.0 | 0.0 | 0.00 | 0.02 | 0.02 | 55 | 1019.1 |
| 20260505194220 | 64 | 259 | 0.0 | 1.0 | 0.00 | 0.02 | 0.02 | 58 | 1018.9 |
| 20260505193716 | 63 | 253 | 0.0 | 0.0 | 0.00 | 0.02 | 0.02 | 58 | 1019.2 |
| 20260505193214 | 64 | 216 | 1.0 | 1.0 | 0.00 | 0.02 | 0.02 | 58 | 1019.1 |
| 20260505192712 | 64 | 238 | 1.0 | 1.0 | 0.00 | 0.02 | 0.02 | 61 | 1019.2 |
| 20260505192209 | 63 | 263 | 0.0 | 0.0 | 0.00 | 0.02 | 0.02 | 63 | 1019.1 |
| 20260505191708 | 61 | 182 | 1.0 | 1.0 | 0.00 | 0.02 | 0.02 | 58 | 1019.2 |
| 20260505191206 | 62 | 335 | 3.0 | 3.0 | 0.00 | 0.02 | 0.02 | 59 | 1019.1 |
| 20260505190702 | 61 | 279 | 2.0 | 2.0 | 0.00 | 0.02 | 0.02 | 61 | 1018.8 |
| 20260505190201 | 62 | 46 | 4.0 | 6.0 | 0.00 | 0.02 | 0.02 | 61 | 1018.9 |
| 20260505185658 | 62 | 281 | 3.0 | 3.0 | 0.00 | 0.02 | 0.02 | 64 | 1019.1 |
| 20260505185155 | 63 | 306 | 0.0 | 1.0 | 0.00 | 0.02 | 0.02 | 62 | 1019.2 |
| 20260505184651 | 64 | 244 | 1.0 | 2.0 | 0.00 | 0.02 | 0.02 | 68 | 1019.1 |
| 20260505184148 | 61 | 269 | 1.0 | 1.0 | 0.00 | 0.02 | 0.02 | 67 | 1018.9 |
| 20260505183645 | 61 | 275 | 0.0 | 1.0 | 0.00 | 0.02 | 0.02 | 66 | 1018.9 |
| 20260505183143 | 59 | 272 | 0.0 | 1.0 | 0.00 | 0.02 | 0.02 | 69 | 1019.2 |
| 20260505182638 | 59 | 65 | 3.0 | 3.0 | 0.00 | 0.02 | 0.02 | 63 | 1019.2 |
| 20260505182136 | 59 | 282 | 1.0 | 1.0 | 0.00 | 0.02 | 0.02 | 66 | 1019.3 |
| 20260505181632 | 59 | 185 | 1.0 | 2.0 | 0.00 | 0.02 | 0.02 | 64 | 1019.2 |
| 20260505181130 | 59 | 242 | 1.0 | 2.0 | 0.00 | 0.02 | 0.02 | 65 | 1019.4 |
| 20260505180626 | 60 | 252 | 1.0 | 2.0 | 0.00 | 0.02 | 0.02 | 70 | 1019.2 |
| 20260505180123 | 56 | 254 | 1.0 | 1.0 | 0.00 | 0.02 | 0.02 | 75 | 1018.9 |
| 20260505175619 | 56 | 254 | 0.0 | 0.0 | 0.00 | 0.02 | 0.02 | 73 | 1019.3 |
| 20260505175116 | 56 | 216 | 1.0 | 1.0 | 0.00 | 0.02 | 0.02 | 71 | 1018.9 |
| 20260505174612 | 54 | 270 | 0.0 | 0.0 | 0.00 | 0.02 | 0.02 | 76 | 1019.1 |
| 20260505174108 | 54 | 256 | 0.0 | 1.0 | 0.00 | 0.02 | 0.02 | 73 | 1018.9 |
| 20260505173605 | 54 | 248 | 1.0 | 1.0 | 0.00 | 0.02 | 0.02 | 73 | 1018.9 |
| 20260505173102 | 55 | 253 | 0.0 | 1.0 | 0.00 | 0.02 | 0.02 | 72 | 1018.9 |
| 20260505172559 | 55 | 261 | 0.0 | 1.0 | 0.00 | 0.02 | 0.02 | 77 | 1018.9 |
| 20260505172056 | 54 | 243 | 0.0 | 1.0 | 0.00 | 0.02 | 0.02 | 74 | 1018.8 |
| 20260505171551 | 54 | 267 | 0.0 | 0.0 | 0.00 | 0.02 | 0.02 | 78 | 1018.7 |
| 20260505171048 | 53 | 256 | 1.0 | 1.0 | 0.00 | 0.02 | 0.02 | 77 | 1018.9 |
| 20260505170544 | 52 | 254 | 0.0 | 1.0 | 0.00 | 0.02 | 0.02 | 81 | 1018.5 |
| 20260505170041 | 52 | 121 | 1.0 | 2.0 | 0.00 | 0.02 | 0.02 | 80 | 1018.7 |
| 20260505165537 | 51 | 225 | 0.0 | 1.0 | 0.00 | 0.02 | 0.02 | 83 | 1018.9 |
| 20260505165032 | 51 | 238 | 1.0 | 1.0 | 0.00 | 0.02 | 0.02 | 82 | 1018.9 |
| 20260505164529 | 51 | 198 | 1.0 | 2.0 | 0.00 | 0.02 | 0.02 | 83 | 1018.7 |
| 20260505164027 | 50 | 277 | 1.0 | 1.0 | 0.00 | 0.02 | 0.02 | 83 | 1018.7 |
| 20260505163525 | 50 | 252 | 0.0 | 0.0 | 0.00 | 0.02 | 0.02 | 83 | 1018.6 |
| 20260505163022 | 50 | 229 | 1.0 | 1.0 | 0.00 | 0.02 | 0.02 | 80 | 1018.7 |
| 20260505162515 | 50 | 275 | 0.0 | 1.0 | 0.00 | 0.02 | 0.02 | 82 | 1018.6 |
| 20260505162012 | 50 | 276 | 0.0 | 0.0 | 0.00 | 0.02 | 0.02 | 83 | 1018.5 |
| 20260505161508 | 50 | 276 | 0.0 | 0.0 | 0.00 | 0.02 | 0.02 | 81 | 1018.6 |
| 20260505161006 | 50 | 275 | 0.0 | 0.0 | 0.00 | 0.02 | 0.02 | 84 | 1018.6 |
| 20260505160504 | 49 | 276 | 1.0 | 1.0 | 0.00 | 0.02 | 0.02 | 88 | 1018.3 |
| 20260505152939 | 47 | 275 | 0.0 | 0.0 | 0.00 | 0.02 | 0.02 | 97 | 1018.3 |
| 20260505152437 | 47 | 275 | 0.0 | 0.0 | 0.00 | 0.02 | 0.02 | 97 | 1018.0 |
| 20260505151937 | 47 | 275 | 0.0 | 1.0 | 0.00 | 0.02 | 0.02 | 98 | 1017.9 |
| 20260505151433 | 47 | 276 | 1.0 | 2.0 | 0.00 | 0.02 | 0.02 | 98 | 1017.9 |
| 20260505150931 | 46 | 275 | 0.0 | 0.0 | 0.00 | 0.02 | 0.02 | 98 | 1017.7 |
| 20260505150428 | 46 | 276 | 0.0 | 1.0 | 0.00 | 0.02 | 0.02 | 98 | 1017.7 |
| 20260505140358 | 46 | 267 | 0.0 | 0.0 | 0.00 | 0.02 | 0.02 | 99 | 1017.3 |
| 20260505124811 | 45 | 269 | 0.0 | 0.0 | 0.00 | 0.02 | 0.02 | 99 | 1016.5 |
| 20260505124308 | 45 | 269 | 0.0 | 0.0 | 0.00 | 0.02 | 0.02 | 99 | 1016.7 |
| 20260505123804 | 46 | 268 | 0.0 | 0.0 | 0.00 | 0.02 | 0.02 | 99 | 1016.5 |
| 20260505123301 | 46 | 268 | 0.0 | 0.0 | 0.00 | 0.02 | 0.02 | 99 | 1016.2 |
| 20260505122757 | 46 | 268 | 0.0 | 0.0 | 0.00 | 0.02 | 0.02 | 99 | 1016.5 |
| 20260505122255 | 46 | 268 | 0.0 | 0.0 | 0.00 | 0.02 | 0.02 | 99 | 1016.5 |
| 20260505121751 | 46 | 269 | 0.0 | 0.0 | 0.00 | 0.02 | 0.02 | 99 | 1016.5 |
| 20260505121248 | 46 | 269 | 0.0 | 0.0 | 0.00 | 0.02 | 0.02 | 99 | 1016.4 |
| 20260505120744 | 46 | 268 | 0.0 | 0.0 | 0.00 | 0.02 | 0.02 | 99 | 1016.5 |
| 20260505120240 | 46 | 268 | 0.0 | 0.0 | 0.00 | 0.02 | 0.02 | 99 | 1016.4 |
| 20260505115739 | 46 | 268 | 0.0 | 0.0 | 0.00 | 0.02 | 0.02 | 99 | 1016.3 |
| 20260505115237 | 45 | 271 | 0.0 | 0.0 | 0.00 | 0.02 | 0.02 | 99 | 1016.4 |
| 20260505114734 | 46 | 271 | 0.0 | 0.0 | 0.00 | 0.02 | 0.02 | 99 | 1016.3 |
| 20260505114230 | 45 | 271 | 0.0 | 0.0 | 0.00 | 0.02 | 0.02 | 99 | 1016.3 |
| 20260505113727 | 45 | 272 | 0.0 | 0.0 | 0.00 | 0.02 | 0.02 | 99 | 1016.3 |
| 20260505113223 | 45 | 257 | 0.0 | 0.0 | 0.00 | 0.02 | 0.02 | 99 | 1016.4 |
| 20260505112720 | 45 | 256 | 0.0 | 0.0 | 0.00 | 0.02 | 0.02 | 99 | 1016.7 |
| 20260505112218 | 45 | 256 | 0.0 | 0.0 | 0.00 | 0.02 | 0.02 | 99 | 1016.3 |
| 20260505111717 | 45 | 256 | 0.0 | 0.0 | 0.00 | 0.02 | 0.02 | 98 | 1016.5 |
| 20260505111214 | 45 | 256 | 0.0 | 0.0 | 0.00 | 0.02 | 0.02 | 98 | 1016.3 |
| 20260505110709 | 45 | 256 | 0.0 | 0.0 | 0.00 | 0.02 | 0.02 | 98 | 1016.3 |
| 20260505110207 | 45 | 253 | 0.0 | 0.0 | 0.00 | 0.02 | 0.02 | 98 | 1016.3 |
| 20260505102142 | 45 | 257 | 0.0 | 0.0 | 0.00 | 0.02 | 0.02 | 98 | 1016.7 |
| 20260505101641 | 45 | 257 | 0.0 | 0.0 | 0.00 | 0.02 | 0.02 | 98 | 1016.7 |
| 20260505101137 | 45 | 257 | 0.0 | 0.0 | 0.00 | 0.02 | 0.02 | 98 | 1016.7 |
| 20260505100633 | 45 | 257 | 0.0 | 0.0 | 0.00 | 0.02 | 0.02 | 98 | 1016.5 |
| 20260505100130 | 45 | 257 | 0.0 | 0.0 | 0.00 | 0.02 | 0.02 | 98 | 1016.5 |
| 20260505095626 | 45 | 257 | 0.0 | 0.0 | 0.00 | 0.02 | 0.02 | 98 | 1016.7 |
| 20260505095123 | 45 | 257 | 0.0 | 0.0 | 0.07 | 0.02 | 0.02 | 98 | 1016.8 |
| 20260505094620 | 45 | 258 | 0.0 | 0.0 | 0.07 | 0.02 | 0.02 | 98 | 1016.8 |
| 20260505094116 | 45 | 258 | 0.0 | 0.0 | 0.00 | 0.01 | 0.01 | 98 | 1016.5 |
| 20260505093612 | 45 | 258 | 0.0 | 0.0 | 0.00 | 0.01 | 0.01 | 98 | 1016.8 |
| 20260505093110 | 45 | 255 | 0.0 | 0.0 | 0.00 | 0.01 | 0.01 | 98 | 1017.1 |
| 20260505092607 | 45 | 248 | 0.0 | 0.0 | 0.00 | 0.01 | 0.01 | 98 | 1016.8 |
| 20260505092106 | 45 | 264 | 0.0 | 0.0 | 0.00 | 0.01 | 0.01 | 98 | 1016.8 |
| 20260505091602 | 45 | 263 | 0.0 | 0.0 | 0.00 | 0.01 | 0.01 | 98 | 1016.8 |
| 20260505091100 | 45 | 266 | 0.0 | 0.0 | 0.00 | 0.01 | 0.01 | 98 | 1017.0 |
| 20260505090558 | 45 | 265 | 1.0 | 1.0 | 0.00 | 0.01 | 0.01 | 98 | 1016.8 |
| 20260505090056 | 45 | 265 | 0.0 | 0.0 | 0.00 | 0.01 | 0.01 | 98 | 1016.9 |
| 20260505085553 | 45 | 265 | 0.0 | 0.0 | 0.00 | 0.01 | 0.01 | 98 | 1017.0 |
| 20260505085051 | 45 | 263 | 0.0 | 0.0 | 0.00 | 0.01 | 0.01 | 98 | 1017.1 |
| 20260505084549 | 45 | 261 | 0.0 | 0.0 | 0.00 | 0.01 | 0.01 | 98 | 1017.0 |
| 20260505084047 | 45 | 261 | 0.0 | 0.0 | 0.00 | 0.01 | 0.01 | 98 | 1017.1 |
| 20260505083543 | 45 | 261 | 0.0 | 0.0 | 0.00 | 0.01 | 0.01 | 98 | 1017.0 |
| 20260505083040 | 45 | 265 | 0.0 | 0.0 | 0.00 | 0.01 | 0.01 | 98 | 1017.1 |
| 20260505082536 | 45 | 281 | 1.0 | 1.0 | 0.00 | 0.01 | 0.01 | 98 | 1016.9 |
| 20260505082033 | 45 | 253 | 0.0 | 0.0 | 0.00 | 0.01 | 0.01 | 98 | 1017.2 |
| 20260505081529 | 45 | 256 | 0.0 | 0.0 | 0.00 | 0.01 | 0.01 | 97 | 1017.0 |
| 20260505081027 | 45 | 259 | 0.0 | 0.0 | 0.00 | 0.01 | 0.01 | 97 | 1017.1 |
| 20260505080523 | 45 | 254 | 1.0 | 1.0 | 0.00 | 0.01 | 0.01 | 97 | 1017.2 |
| 20260505080020 | 45 | 266 | 0.0 | 1.0 | 0.00 | 0.01 | 0.01 | 97 | 1017.2 |
| 20260505075515 | 45 | 266 | 0.0 | 0.0 | 0.00 | 0.01 | 0.01 | 97 | 1017.2 |
| 20260505075013 | 45 | 256 | 0.0 | 0.0 | 0.00 | 0.01 | 0.01 | 97 | 1017.0 |
| 20260505074510 | 45 | 256 | 0.0 | 0.0 | 0.00 | 0.01 | 0.01 | 97 | 1017.0 |
| 20260505074007 | 45 | 271 | 1.0 | 2.0 | 0.00 | 0.01 | 0.01 | 97 | 1016.9 |
| 20260505073504 | 45 | 270 | 1.0 | 2.0 | 0.05 | 0.01 | 0.01 | 97 | 1017.2 |
| 20260505073002 | 45 | 251 | 1.0 | 2.0 | 0.05 | 0.01 | 0.01 | 97 | 1017.2 |
| 20260505072458 | 45 | 249 | 0.0 | 0.0 | 0.00 | 0.00 | 0.00 | 97 | 1017.6 |
| 20260505071954 | 45 | 248 | 0.0 | 0.0 | 0.00 | 0.00 | 0.00 | 97 | 1017.6 |
| 20260505071449 | 45 | 257 | 0.0 | 0.0 | 0.00 | 0.00 | 0.00 | 97 | 1017.5 |
| 20260505070948 | 45 | 257 | 0.0 | 0.0 | 0.00 | 0.00 | 0.00 | 97 | 1017.5 |
| 20260505070444 | 45 | 255 | 0.0 | 0.0 | 0.07 | 0.00 | 0.00 | 97 | 1017.3 |
| 20260505065940 | 45 | 252 | 0.0 | 0.0 | 0.07 | 0.53 | 0.53 | 97 | 1017.2 |
| 20260505065437 | 45 | 250 | 0.0 | 0.0 | 0.05 | 0.52 | 0.52 | 97 | 1017.1 |
| 20260505064933 | 45 | 254 | 0.0 | 0.0 | 0.05 | 0.52 | 0.52 | 97 | 1017.1 |
| 20260505064431 | 45 | 218 | 1.0 | 1.0 | 0.07 | 0.51 | 0.51 | 97 | 1016.7 |
| 20260505063929 | 45 | 234 | 0.0 | 0.0 | 0.14 | 0.51 | 0.51 | 97 | 1016.8 |
| 20260505063425 | 45 | 238 | 1.0 | 1.0 | 0.07 | 0.50 | 0.50 | 97 | 1016.5 |
| 20260505062922 | 45 | 211 | 1.0 | 1.0 | 0.00 | 0.49 | 0.49 | 97 | 1016.7 |
| 20260505062419 | 45 | 255 | 0.0 | 0.0 | 0.00 | 0.49 | 0.49 | 97 | 1016.8 |
| 20260505061915 | 45 | 252 | 0.0 | 0.0 | 0.00 | 0.49 | 0.49 | 97 | 1016.9 |
| 20260505061414 | 45 | 255 | 0.0 | 0.0 | 0.00 | 0.49 | 0.49 | 97 | 1016.8 |
| 20260505060911 | 44 | 252 | 0.0 | 0.0 | 0.00 | 0.49 | 0.49 | 97 | 1016.5 |
| 20260505060408 | 44 | 251 | 0.0 | 0.0 | 0.00 | 0.49 | 0.49 | 97 | 1016.4 |
| 20260505055904 | 44 | 249 | 0.0 | 0.0 | 0.00 | 0.49 | 0.49 | 97 | 1016.8 |
| 20260505055400 | 45 | 246 | 0.0 | 0.0 | 0.00 | 0.49 | 0.49 | 97 | 1016.4 |
| 20260505054857 | 45 | 252 | 0.0 | 0.0 | 0.00 | 0.49 | 0.49 | 97 | 1016.9 |
| 20260505054354 | 45 | 252 | 0.0 | 0.0 | 0.00 | 0.49 | 0.49 | 97 | 1016.5 |
| 20260505053853 | 45 | 245 | 1.0 | 1.0 | 0.05 | 0.49 | 0.49 | 97 | 1016.9 |
| 20260505053349 | 45 | 253 | 0.0 | 0.0 | 0.05 | 0.49 | 0.49 | 97 | 1017.0 |
| 20260505052846 | 45 | 254 | 0.0 | 0.0 | 0.00 | 0.48 | 0.48 | 96 | 1016.7 |
| 20260505052343 | 45 | 261 | 0.0 | 0.0 | 0.00 | 0.48 | 0.48 | 96 | 1017.0 |
| 20260505051840 | 44 | 284 | 1.0 | 1.0 | 0.07 | 0.48 | 0.48 | 96 | 1017.1 |
| 20260505051337 | 44 | 260 | 0.0 | 1.0 | 0.07 | 0.48 | 0.48 | 97 | 1017.0 |
| 20260505050835 | 45 | 262 | 1.0 | 1.0 | 0.00 | 0.47 | 0.47 | 97 | 1016.9 |
| 20260505050334 | 45 | 255 | 0.0 | 0.0 | 0.00 | 0.47 | 0.47 | 97 | 1016.9 |
| 20260505041301 | 45 | 265 | 2.0 | 2.0 | 0.00 | 0.47 | 0.47 | 95 | 1016.5 |
| 20260505040758 | 45 | 266 | 2.0 | 2.0 | 0.00 | 0.47 | 0.47 | 96 | 1016.7 |
| 20260505040255 | 45 | 289 | 3.0 | 3.0 | 0.00 | 0.47 | 0.47 | 95 | 1016.5 |
| 20260505035752 | 45 | 247 | 1.0 | 1.0 | 0.00 | 0.47 | 0.47 | 95 | 1016.2 |
| 20260505035248 | 45 | 259 | 0.0 | 0.0 | 0.00 | 0.47 | 0.47 | 95 | 1016.5 |
| 20260505034745 | 45 | 263 | 0.0 | 0.0 | 0.00 | 0.47 | 0.47 | 95 | 1016.3 |
| 20260505034242 | 45 | 265 | 1.0 | 1.0 | 0.00 | 0.47 | 0.47 | 95 | 1016.3 |
| 20260505033738 | 45 | 277 | 0.0 | 0.0 | 0.00 | 0.47 | 0.47 | 94 | 1016.2 |
| 20260505033236 | 45 | 242 | 0.0 | 1.0 | 0.05 | 0.47 | 0.47 | 94 | 1015.7 |
| 20260505032734 | 45 | 200 | 1.0 | 2.0 | 0.05 | 0.47 | 0.47 | 94 | 1015.6 |
| 20260505032230 | 45 | 260 | 0.0 | 0.0 | 0.07 | 0.46 | 0.46 | 94 | 1016.2 |
| 20260505031727 | 45 | 258 | 0.0 | 1.0 | 0.12 | 0.46 | 0.46 | 93 | 1016.7 |
| 20260505031223 | 45 | 269 | 0.0 | 0.0 | 0.24 | 0.45 | 0.45 | 92 | 1016.9 |
| 20260505030721 | 45 | 277 | 0.0 | 0.0 | 0.24 | 0.44 | 0.44 | 92 | 1016.4 |
| 20260505030217 | 45 | 288 | 2.0 | 2.0 | 0.05 | 0.41 | 0.41 | 92 | 1016.4 |
| 20260505025712 | 46 | 228 | 2.0 | 2.0 | 0.00 | 0.40 | 0.40 | 92 | 1016.8 |
| 20260505025211 | 46 | 253 | 0.0 | 1.0 | 0.00 | 0.40 | 0.40 | 92 | 1016.4 |
| 20260505024709 | 47 | 319 | 2.0 | 2.0 | 0.00 | 0.40 | 0.40 | 93 | 1016.8 |
| 20260505024205 | 47 | 179 | 2.0 | 2.0 | 0.00 | 0.40 | 0.40 | 94 | 1016.5 |
| 20260505023703 | 47 | 269 | 0.0 | 0.0 | 0.00 | 0.40 | 0.40 | 94 | 1016.2 |
| 20260505023200 | 47 | 304 | 1.0 | 1.0 | 0.00 | 0.40 | 0.40 | 94 | 1016.2 |
| 20260505022658 | 47 | 336 | 1.0 | 2.0 | 0.00 | 0.40 | 0.40 | 94 | 1016.0 |
| 20260505022154 | 47 | 256 | 0.0 | 0.0 | 0.00 | 0.40 | 0.40 | 93 | 1016.1 |
| 20260505021651 | 47 | 262 | 1.0 | 1.0 | 0.00 | 0.40 | 0.40 | 93 | 1015.9 |
| 20260505021148 | 47 | 215 | 0.0 | 1.0 | 0.00 | 0.40 | 0.40 | 93 | 1015.9 |
| 20260505020644 | 47 | 298 | 1.0 | 1.0 | 0.00 | 0.40 | 0.40 | 93 | 1015.7 |
| 20260505020140 | 46 | 189 | 1.0 | 2.0 | 0.00 | 0.40 | 0.40 | 93 | 1015.6 |
| 20260505015637 | 47 | 316 | 1.0 | 2.0 | 0.00 | 0.40 | 0.40 | 92 | 1015.5 |
| 20260505015133 | 47 | 313 | 1.0 | 2.0 | 0.07 | 0.40 | 0.40 | 92 | 1015.4 |
| 20260505014630 | 47 | 227 | 6.0 | 10.0 | 0.07 | 0.40 | 0.40 | 93 | 1014.0 |
| 20260505014127 | 47 | 222 | 3.0 | 7.0 | 0.31 | 0.39 | 0.39 | 93 | 1015.9 |
| 20260505013625 | 47 | 223 | 2.0 | 3.0 | 0.42 | 0.38 | 0.38 | 93 | 1016.3 |
| 20260505013122 | 48 | 206 | 3.0 | 3.0 | 0.35 | 0.34 | 0.34 | 93 | 1016.9 |
| 20260505012620 | 48 | 185 | 2.0 | 2.0 | 0.42 | 0.31 | 0.31 | 92 | 1017.8 |
| 20260505012117 | 48 | 183 | 1.0 | 2.0 | 0.42 | 0.28 | 0.28 | 91 | 1017.2 |
| 20260505011612 | 48 | 250 | 2.0 | 2.0 | 0.47 | 0.24 | 0.24 | 89 | 1017.2 |
| 20260505011110 | 48 | 158 | 2.0 | 3.0 | 0.35 | 0.20 | 0.20 | 90 | 1016.9 |
| 20260505010605 | 48 | 189 | 2.0 | 2.0 | 0.35 | 0.17 | 0.17 | 88 | 1016.9 |
| 20260505005558 | 49 | 218 | 1.0 | 1.0 | 0.31 | 0.11 | 0.11 | 87 | 1017.0 |
| 20260505005055 | 49 | 183 | 3.0 | 3.0 | 0.17 | 0.08 | 0.08 | 86 | 1016.9 |
| 20260505004552 | 49 | 239 | 2.0 | 2.0 | 0.17 | 0.06 | 0.06 | 85 | 1017.1 |